Wind_Speed
29 30 31 32 33 34 34 35 35 36 36 36 36 36 35 35 35 35 37 38 39 40 41 41 42 42 42 42 42 41 42 42 41 40 39 37 37 36 35 34 33 32 31 30 29 28 28 28 28 28 27 27 29 30 31 33 35 36 37 38 38 37 37 37 36 37 40 43 45 44 43 43 44 45 45 46 47 48 48 48 49 49 50 50 49
30 30 31 32 33 34 35 35 36 36 36 36 36 36 36 35 35 35 36 38 38 39 40 41 41 41 42 42 42 41 41 41 41 40 39 38 37 37 36 35 34 32 31 30 29 28 28 28 28 27 27 26 27 28 29 30 31 33 34 35 35 35 36 36 36 36 39 42 44 45 45 44 44 45 46 45 45 46 47 48 48 48 49 49 49
31 31 32 33 34 34 35 36 36 36 36 36 37 37 37 36 36 36 37 37 38 39 40 40 41 41 41 42 42 41 40 41 40 40 39 38 37 37 36 35 34 33 32 30 29 28 27 27 28 27 27 26 26 27 27 28 29 30 31 31 32 32 33 34 35 35 37 40 42 44 46 45 43 44 46 47 46 45 46 47 48 48 49 48 48
33 33 33 34 34 35 35 36 36 37 37 37 38 38 37 37 37 37 37 37 37 38 39 39 40 40 41 41 41 41 40 40 40 40 40 38 37 37 37 36 35 34 33 31 29 28 28 27 27 27 26 26 25 26 27 27 28 28 29 29 29 29 29 30 31 33 34 37 39 41 44 46 46 45 45 46 46 46 46 47 47 48 48 48 47
34 35 34 35 36 36 36 37 37 37 37 38 38 38 38 38 38 38 37 37 37 38 39 39 39 40 40 41 41 41 40 39 39 39 40 39 37 37 36 36 35 34 33 32 31 29 28 27 26 26 26 25 24 24 25 26 27 27 27 28 27 28 27 26 27 28 31 33 36 38 40 43 47 47 46 45 45 46 47 47 47 47 48 48 47
35 36 36 37 37 38 38 38 38 38 38 38 38 38 39 38 38 38 38 37 37 38 38 39 39 39 40 41 41 41 40 38 38 39 39 39 38 37 37 36 36 35 34 33 31 30 28 27 26 26 26 25 24 23 24 25 26 26 27 27 27 27 27 26 24 24 26 29 32 35 37 40 44 46 48 48 45 44 45 47 47 47 48 47 47
36 37 38 38 39 39 40 40 40 39 38 39 39 39 39 39 39 38 38 38 37 38 39 39 39 39 40 41 41 41 41 39 38 38 39 39 38 37 37 37 37 36 34 33 32 31 29 28 26 26 25 25 24 23 23 23 24 25 26 26 27 27 27 26 25 24 23 25 29 31 34 37 40 43 47 50 50 46 43 45 47 48 48 47 47
38 38 39 39 39 40 41 41 41 40 40 40 39 39 39 39 40 39 39 38 38 39 39 39 39 40 40 41 41 41 41 40 39 38 37 38 38 37 37 37 37 37 36 34 32 31 30 29 27 26 26 25 25 24 23 23 23 23 24 25 26 27 27 27 27 26 24 23 25 28 31 34 37 40 43 48 51 52 47 44 45 48 49 47 46
36 37 39 38 39 39 40 42 41 40 40 40 40 40 40 40 41 40 40 39 39 40 40 40 40 41 41 42 42 42 41 41 40 38 37 37 37 37 37 37 37 38 37 35 33 32 30 29 28 27 26 26 26 25 24 23 23 23 23 24 25 26 27 27 27 27 27 25 24 25 28 32 35 38 40 44 48 53 54 50 46 46 48 48 48
36 37 38 39 39 40 41 43 42 41 40 40 40 40 41 41 41 42 41 40 41 41 41 41 41 42 43 43 44 43 43 42 42 40 37 37 37 36 36 36 37 37 38 37 35 33 31 30 30 29 28 27 27 27 26 25 24 23 23 23 24 25 26 27 28 28 28 28 27 26 26 29 33 36 39 41 44 48 53 55 52 49 48 48 49
37 38 39 40 41 41 43 44 44 43 43 41 40 40 41 41 42 43 42 42 42 42 42 42 42 43 44 45 45 45 44 43 43 41 39 37 36 36 36 36 36 36 38 38 37 35 32 31 31 30 29 29 28 28 28 26 25 25 24 24 24 25 25 26 27 28 29 29 29 29 27 27 29 33 36 39 42 45 48 52 54 54 51 48 49
39 40 41 41 42 43 43 45 45 44 45 44 42 42 41 41 42 43 42 42 43 43 43 43 43 44 45 46 46 46 46 45 44 43 40 38 37 36 36 36 35 36 37 38 38 37 35 32 32 31 31 30 29 29 29 29 27 26 25 25 24 25 26 26 27 28 29 29 30 31 30 29 28 30 33 35 39 43 46 48 50 54 55 51 47
42 42 44 45 46 47 46 46 45 44 44 45 45 44 43 42 42 42 42 42 43 43 43 44 44 44 45 46 47 47 47 46 45 44 42 40 37 37 36 35 35 35 36 37 38 39 37 35 33 32 32 31 30 30 30 30 29 28 27 26 26 26 26 27 27 27 28 29 30 32 32 31 29 28 30 32 34 38 42 45 47 50 55 54 49
46 47 48 49 49 49 49 48 47 46 45 44 45 46 46 45 44 43 42 42 42 43 43 44 45 45 46 46 47 47 46 46 46 45 44 42 39 37 37 36 35 34 35 37 39 39 39 37 35 34 33 32 31 30 30 31 30 29 28 27 27 27 27 27 27 27 27 29 30 31 32 33 32 29 28 29 31 33 37 42 45 47 51 54 52
49 52 52 53 53 51 50 48 47 47 47 46 46 46 47 47 46 45 44 42 43 43 44 45 46 45 46 46 46 46 46 46 46 46 45 43 40 38 36 36 35 34 34 37 39 40 40 39 38 36 35 34 33 31 31 31 31 30 29 29 28 29 29 28 28 27 27 29 30 31 32 33 33 32 29 28 30 31 33 37 42 45 48 52 53
52 54 56 56 55 53 51 48 48 47 47 47 46 46 47 47 47 47 46 45 45 44 44 45 46 46 46 46 46 46 46 46 46 46 46 44 42 38 37 37 36 34 34 36 38 39 40 40 39 38 37 36 35 33 32 32 32 31 30 29 29 30 30 30 29 28 28 29 30 30 31 32 33 34 31 29 29 30 32 34 38 43 46 50 53
55 57 58 58 57 54 51 49 48 47 46 46 45 45 46 46 47 48 48 48 47 46 45 45 45 45 46 46 46 46 46 46 46 46 47 46 43 39 37 37 36 35 34 35 37 39 40 41 40 39 39 38 37 36 35 33 32 32 32 31 30 30 31 31 30 29 29 29 30 30 30 30 32 33 32 30 29 29 31 33 36 40 44 48 52
57 59 59 58 57 55 53 50 48 46 45 45 45 45 44 44 45 46 47 48 48 48 48 46 45 44 45 46 46 46 46 46 46 46 47 47 43 40 38 37 37 35 34 34 36 37 39 41 41 40 40 40 39 38 37 35 34 33 33 32 31 31 31 31 31 30 30 30 30 30 29 29 30 32 31 31 30 29 30 32 34 37 42 46 50
60 61 60 58 57 55 53 51 49 46 45 45 46 46 46 45 45 45 45 45 46 48 48 47 45 44 44 46 47 46 46 46 46 45 46 46 44 41 39 37 37 36 34 34 35 36 38 40 41 41 40 40 40 40 39 38 36 34 34 33 33 32 31 31 31 31 31 30 30 30 28 28 29 30 30 30 30 30 29 30 32 34 38 43 48
61 61 60 59 57 56 55 53 50 48 47 46 46 45 46 46 46 46 46 45 45 46 47 47 46 45 46 47 47 46 46 46 45 45 46 46 44 43 40 37 37 36 35 34 34 35 37 38 40 41 41 40 40 40 40 39 38 36 35 34 34 33 32 31 31 31 31 31 30 29 28 27 28 28 28 28 29 29 29 29 30 31 34 39 44
61 61 60 59 58 58 57 54 52 51 49 47 46 44 44 44 44 45 46 46 45 45 45 46 46 46 46 46 46 46 46 46 45 44 45 45 45 44 41 38 37 36 35 34 34 34 36 37 39 40 40 40 40 40 40 40 38 37 35 35 34 33 32 31 31 31 31 31 30 29 27 27 27 26 25 27 28 28 28 28 28 28 29 34 40
61 61 60 60 60 60 58 56 55 53 52 49 47 44 43 42 42 43 44 45 45 45 45 46 46 47 46 45 45 46 45 45 44 44 44 45 45 44 42 39 36 35 35 34 33 34 35 36 37 38 39 40 39 39 39 39 38 36 36 35 34 33 32 30 30 30 31 31 30 28 27 26 27 25 24 25 26 27 27 27 26 26 26 28 34
61 60 60 60 60 60 59 58 56 55 53 51 48 46 44 42 41 42 43 44 45 45 45 46 47 48 47 46 45 44 44 44 44 44 44 45 45 44 42 39 36 35 35 34 33 33 34 35 36 37 38 39 39 39 38 38 37 36 35 34 34 33 31 30 29 30 30 30 30 28 27 26 26 24 23 24 24 25 26 25 24 24 23 24 28
61 60 60 60 61 60 59 58 57 56 54 52 51 49 47 46 44 43 43 43 44 45 45 45 46 47 48 47 45 43 42 43 43 43 43 44 44 43 42 39 37 36 35 34 33 33 33 34 35 36 37 38 38 38 38 36 35 35 34 34 33 32 31 29 28 29 30 30 29 28 27 26 25 23 22 22 23 23 24 24 23 21 21 20 22
61 61 62 62 62 61 60 59 58 57 55 54 53 52 51 50 47 46 45 44 44 44 44 44 43 45 46 46 45 43 42 42 43 43 42 42 43 43 41 39 37 36 36 34 33 32 33 33 33 34 36 37 37 37 37 35 34 34 34 33 32 31 30 28 28 29 30 29 29 28 27 26 25 23 22 21 21 22 23 23 22 20 19 18 18
61 62 63 64 64 63 61 60 58 57 56 55 55 54 54 53 50 49 48 47 45 44 44 43 43 43 44 44 44 43 41 41 42 42 41 41 42 43 41 39 37 37 36 34 32 31 32 32 32 33 34 35 36 36 35 34 33 33 33 32 31 31 29 27 27 29 29 29 28 28 27 25 24 22 21 21 20 20 21 22 22 21 19 18 17
61 63 64 64 64 64 62 60 58 57 56 56 56 56 56 55 54 52 51 50 48 46 43 42 42 42 41 41 42 42 41 41 42 42 40 39 41 43 42 39 37 37 37 34 32 31 31 31 32 32 33 34 35 35 34 33 33 32 32 31 30 30 28 26 27 29 29 28 27 27 26 24 23 22 20 20 19 19 19 20 21 21 20 18 17
63 63 64 63 63 63 61 60 58 57 58 58 58 58 58 58 57 56 54 53 51 48 44 41 40 41 40 39 40 41 41 41 42 41 39 38 40 42 41 39 37 37 37 35 32 30 30 30 31 31 32 33 34 33 32 32 32 32 31 30 30 29 27 26 28 28 28 27 26 26 25 23 21 20 19 18 18 17 18 19 20 20 20 19 18
65 65 64 63 62 62 60 59 59 59 60 60 60 61 61 60 60 59 58 55 53 51 47 42 39 39 40 40 40 41 41 40 41 40 38 37 38 40 40 38 37 37 36 35 32 30 29 29 30 30 31 32 32 32 32 32 32 32 30 30 29 28 25 26 28 28 26 25 24 24 23 21 19 18 17 17 17 16 16 17 18 18 19 20 19
65 64 63 63 62 61 59 59 59 59 60 61 61 62 63 63 63 61 60 58 56 54 51 46 41 39 40 41 41 40 40 39 39 39 37 37 37 38 38 37 37 37 36 34 32 30 29 28 28 29 30 31 31 31 31 32 32 31 30 30 29 26 24 26 27 27 24 23 23 22 21 20 18 16 15 16 16 16 15 15 16 17 17 18 19
64 63 64 64 63 62 60 60 59 59 59 60 62 63 64 64 64 63 61 60 58 55 53 50 44 40 40 41 41 41 39 38 38 38 37 36 36 36 36 36 36 37 36 34 32 29 28 27 27 28 29 29 30 30 31 32 32 31 30 29 28 25 24 26 27 26 23 22 22 22 20 19 18 16 15 15 15 15 15 14 14 15 15 16 17
63 64 65 66 66 65 62 60 60 60 60 61 62 63 64 64 64 64 62 60 58 56 54 52 47 42 39 40 41 41 39 37 37 37 36 35 35 35 35 35 36 37 36 33 31 29 27 26 26 27 28 28 29 29 31 31 31 30 30 30 28 25 23 25 27 26 23 22 22 21 20 18 16 15 14 15 15 15 15 15 14 13 13 14 15
62 64 65 67 67 65 62 61 61 61 62 64 64 65 66 66 66 64 63 61 58 56 54 52 47 42 39 39 40 40 38 36 36 37 36 34 33 34 34 34 36 36 35 33 30 28 26 25 26 26 27 27 28 29 30 31 31 30 30 30 29 26 24 25 27 26 23 21 20 20 20 17 15 15 15 15 15 15 15 15 14 13 13 12 12
63 66 68 68 66 65 64 64 64 65 67 68 69 70 69 68 67 65 63 61 59 57 54 50 45 41 39 37 38 39 37 36 36 36 34 32 32 32 33 34 35 36 35 32 30 28 26 25 25 25 26 27 27 29 30 31 30 30 30 31 30 27 25 26 27 26 24 21 19 18 19 17 15 15 15 14 14 14 14 14 13 13 14 13 12
66 68 68 67 67 68 68 67 67 69 70 71 72 71 69 68 67 65 63 61 59 57 53 49 44 40 39 38 37 38 37 36 37 36 33 30 30 30 31 33 34 35 34 32 30 28 26 25 24 25 25 26 26 28 30 30 30 30 31 31 31 29 27 27 28 27 25 22 18 17 18 17 16 16 16 15 15 15 14 14 13 14 14 14 12
66 68 67 68 69 67 66 66 68 68 69 71 73 72 71 70 67 65 63 60 58 56 52 47 43 40 39 39 38 37 37 37 38 35 30 28 28 29 31 31 32 34 34 32 30 28 26 24 24 24 24 24 26 28 30 30 30 30 31 32 31 30 28 28 29 29 26 23 20 18 18 19 17 16 16 16 16 16 16 15 15 15 15 14 12
67 69 69 69 68 65 64 68 69 66 67 75 80 79 76 73 68 64 61 58 55 53 49 45 41 39 39 39 39 39 38 39 38 33 28 27 28 29 30 30 32 32 32 31 29 27 25 24 24 24 24 24 25 28 29 29 29 30 31 32 31 30 29 29 30 30 27 25 22 20 20 20 18 18 18 18 18 18 18 18 17 17 17 15 13
69 69 69 68 65 65 67 69 67 65 70 80 85 83 78 72 65 59 56 56 55 52 48 45 41 39 39 38 39 40 39 39 37 31 27 27 27 28 28 29 31 31 31 30 29 27 25 24 24 24 24 24 25 27 28 28 28 29 30 31 31 31 30 30 31 30 27 26 24 22 21 20 20 20 20 20 21 21 21 20 19 20 20 17 13
67 66 67 66 64 66 67 65 63 68 77 84 86 80 73 66 59 54 51 55 58 54 48 45 43 41 40 39 39 40 40 39 35 29 27 27 26 27 27 29 30 31 30 29 27 26 25 24 24 24 24 23 24 26 27 28 28 29 29 30 30 30 30 30 31 29 27 26 25 23 22 22 22 22 22 22 23 24 24 22 21 22 22 18 15
64 65 66 65 63 65 64 62 66 75 83 86 82 73 66 61 57 51 48 54 60 57 50 46 44 42 41 39 38 39 40 39 34 29 27 27 26 25 26 28 30 30 28 27 26 25 25 24 23 23 23 23 23 25 26 27 27 27 28 28 29 29 30 31 30 27 25 25 25 25 25 24 23 23 23 23 24 24 25 24 24 25 23 18 17
65 66 67 67 68 69 69 70 75 81 83 80 73 67 63 58 52 46 47 55 61 57 50 47 45 42 41 40 38 38 39 38 34 29 27 26 24 24 26 27 29 29 27 25 25 24 24 23 23 22 22 22 22 24 25 25 26 26 27 27 28 30 31 30 26 23 24 25 26 27 27 26 25 24 23 24 25 25 25 26 27 28 25 21 21
66 69 69 72 75 75 76 77 77 76 74 71 66 63 60 53 46 47 53 59 61 56 51 48 45 42 41 40 39 38 37 36 33 30 28 25 23 23 25 26 28 28 26 24 23 23 23 22 22 21 21 21 22 22 23 24 24 25 26 27 29 31 30 27 24 23 24 25 26 27 27 26 26 25 25 25 25 26 27 29 30 29 26 24 25
68 71 71 72 73 73 73 73 71 69 68 66 62 60 57 52 51 55 60 62 60 56 51 48 44 41 41 40 39 38 36 34 32 30 28 24 22 22 24 26 27 26 24 23 23 22 21 21 21 20 20 20 20 20 22 23 24 25 26 28 29 29 27 26 25 24 24 24 25 25 26 26 26 26 26 26 26 27 28 29 29 29 27 27 27
69 70 68 68 68 69 69 68 66 65 64 62 60 58 56 56 57 59 61 60 57 54 51 47 43 41 41 40 38 37 34 31 30 29 27 23 20 21 23 24 25 25 23 22 22 21 20 20 20 19 19 19 19 19 21 23 25 26 27 27 28 28 27 27 26 24 23 23 23 24 24 25 26 27 27 28 27 27 28 29 29 29 29 29 29
67 66 66 66 66 66 66 65 64 62 61 60 59 57 56 57 57 58 58 57 56 53 50 47 43 41 40 39 37 35 32 29 27 27 26 23 20 20 22 23 24 23 22 21 21 19 19 19 18 18 17 18 18 18 20 22 25 26 27 27 28 28 27 27 26 24 23 22 23 23 25 25 26 27 28 28 29 29 29 29 30 30 30 30 30
65 65 66 65 64 63 63 64 63 63 62 61 60 57 56 56 56 57 57 56 55 52 49 45 43 40 39 38 35 32 29 26 25 26 25 22 19 19 21 22 22 21 20 20 19 18 17 17 17 16 16 17 17 18 19 21 23 26 27 28 27 27 27 26 26 25 24 23 23 24 25 26 27 28 29 30 30 30 30 31 31 31 31 31 31
64 64 63 63 62 62 63 64 64 63 62 61 60 58 57 56 57 57 56 54 52 50 46 43 40 38 37 36 32 29 26 24 23 25 24 21 18 18 19 20 20 20 19 19 18 17 17 16 15 15 15 16 17 17 18 20 21 23 24 25 26 26 26 25 25 25 24 24 24 24 25 26 28 29 29 30 30 30 31 31 32 32 32 32 32
61 61 61 61 62 62 62 63 63 62 61 60 59 59 58 58 58 58 56 53 50 48 44 40 37 36 35 33 30 27 23 21 22 24 23 20 18 18 19 19 19 19 18 18 17 17 16 15 14 14 14 15 16 17 18 19 19 20 21 22 22 23 23 22 22 22 22 22 23 24 24 25 26 27 27 28 28 29 29 30 30 31 31 32 32
60 60 61 61 61 61 61 62 61 61 60 59 59 59 59 59 59 57 54 52 49 46 41 37 35 34 33 31 29 25 21 19 20 22 22 19 18 17 18 18 18 18 17 17 16 16 16 15 14 13 14 15 16 17 18 18 18 18 19 20 19 19 19 18 18 19 20 20 21 22 22 23 24 24 25 25 26 26 26 27 28 29 30 30 30
60 60 60 61 60 60 61 60 60 60 59 59 59 59 59 59 57 55 52 49 47 44 39 35 33 32 31 30 28 23 19 17 19 22 22 19 18 17 17 17 17 17 16 16 15 15 16 15 14 14 14 14 16 17 17 17 17 18 18 18 18 17 16 16 16 17 18 18 19 20 20 21 21 22 22 23 23 22 23 23 24 26 27 28 28
59 60 60 60 60 60 59 59 60 60 59 58 58 58 59 59 57 54 50 47 45 43 39 35 32 31 29 29 27 22 17 16 18 21 21 20 17 16 16 17 17 16 15 15 15 15 15 14 14 14 13 14 15 16 16 16 17 17 17 17 15 15 15 15 15 15 16 17 18 18 18 18 18 18 19 19 19 19 19 20 21 22 24 24 25
Wind_Direction
341 341 340 340 340 338 337 336 334 333 332 330 328 327 329 330 331 332 333 334 335 334 334 333 331 329 327 326 324 322 319 316 313 311 307 304 301 301 302 302 304 305 306 307 308 311 312 311 309 307 306 305 305 303 300 296 293 291 290 286 283 281 278 274 269 265 260 254 251 252 254 257 259 260 260 259 259 257 255 254 252 252 251 251 250
345 345 343 342 342 340 339 338 336 335 333 330 328 328 329 328 329 330 331 333 334 333 333 333 331 329 327 325 324 323 320 317 314 310 307 302 299 298 298 299 301 302 303 305 305 308 310 310 309 307 306 305 304 303 302 300 297 294 292 289 285 282 279 277 273 269 265 260 255 251 251 254 257 259 260 259 259 260 258 256 254 252 252 251 250
347 347 345 343 342 340 339 338 336 335 334 331 330 330 329 328 327 328 330 331 331 331 332 333 332 330 327 325 324 322 320 317 314 311 307 302 297 295 295 296 298 300 301 302 303 304 307 308 308 307 305 304 303 302 302 301 299 297 296 293 290 286 282 279 276 272 269 266 262 256 252 252 254 257 259 260 259 259 259 258 256 254 253 252 250
348 347 345 342 342 340 338 337 335 335 334 332 331 331 330 328 327 327 328 329 329 329 330 332 332 330 327 325 323 322 320 318 314 310 307 303 297 293 292 293 295 297 298 299 300 301 303 305 306 306 305 304 303 301 300 299 299 299 298 297 295 292 288 283 279 276 273 270 266 262 258 255 252 253 255 259 260 259 259 258 257 256 254 253 252
347 346 345 343 341 340 338 337 335 335 334 331 331 331 330 328 327 326 326 326 327 326 328 330 330 329 327 325 323 322 320 318 314 311 308 304 299 293 290 290 291 294 295 296 297 297 299 301 303 303 303 304 303 301 299 297 297 297 296 297 296 295 293 289 284 280 277 274 271 268 264 259 255 253 252 253 257 258 258 258 258 256 255 254 253
346 345 344 342 341 339 338 336 334 334 333 330 330 329 328 327 326 325 324 325 325 324 325 327 328 328 325 324 323 321 320 318 314 311 309 306 302 296 291 288 288 289 291 292 293 294 295 297 299 300 300 301 302 302 300 298 296 294 293 293 294 294 293 292 289 286 282 278 275 272 269 264 260 257 254 251 251 254 256 256 257 257 255 255 254
347 346 345 343 340 337 335 334 332 332 331 329 328 328 327 326 325 324 323 324 323 322 323 324 325 325 323 322 321 321 320 318 315 312 310 306 303 298 292 288 286 286 287 288 289 290 291 292 294 295 297 298 299 300 301 300 299 296 294 292 291 291 292 292 292 290 288 283 280 277 273 270 266 261 257 254 250 249 251 253 255 256 256 255 255
348 346 344 342 339 335 333 331 329 329 328 326 325 325 324 324 324 323 323 323 322 320 321 321 322 322 321 320 319 319 319 317 315 312 310 307 303 299 293 288 285 284 284 285 285 285 286 287 288 290 292 293 294 296 297 299 300 299 298 295 293 292 291 291 292 292 291 288 284 281 276 273 270 265 262 259 254 249 247 249 251 253 254 254 255
346 343 341 338 334 331 329 327 326 325 324 322 322 322 322 322 322 322 322 322 321 320 319 320 320 320 319 318 317 317 317 316 315 313 310 306 303 300 294 288 284 283 282 282 282 282 282 283 284 285 287 289 290 292 293 295 297 299 300 299 297 295 293 292 291 292 292 292 290 285 281 276 272 269 266 263 259 254 248 247 248 249 251 252 253
343 339 337 333 330 328 325 323 321 319 319 318 319 319 318 319 319 320 321 321 320 319 318 319 319 319 318 317 316 316 316 315 314 313 309 306 303 300 295 289 284 281 280 280 279 279 279 279 280 281 282 284 286 288 289 291 293 295 298 299 299 297 296 294 293 292 292 292 293 291 286 281 275 271 268 265 263 259 253 249 248 248 248 248 250
341 337 334 331 328 325 322 319 317 315 314 314 315 315 315 315 315 316 317 318 318 318 318 319 319 318 317 316 315 315 314 314 314 312 309 306 303 300 296 291 285 281 279 278 278 277 277 277 277 278 279 280 282 284 286 288 289 291 294 296 298 298 297 296 295 295 294 294 294 294 292 289 281 274 269 266 264 262 258 253 250 249 248 246 247
338 335 333 330 327 325 321 319 317 313 311 309 309 310 310 311 311 312 314 315 315 315 316 317 318 318 317 316 314 314 313 313 312 311 309 305 302 299 296 292 287 281 278 276 276 276 275 275 275 275 276 277 278 281 283 285 286 287 289 292 294 296 297 296 296 297 297 296 295 295 295 294 289 280 272 268 265 263 261 257 253 251 250 247 245
336 333 331 329 328 326 323 321 319 315 311 307 305 305 306 307 307 307 309 312 312 313 314 314 315 315 315 314 314 313 312 312 311 310 308 305 302 299 296 293 288 283 278 275 274 274 274 274 274 274 275 276 277 278 280 282 284 285 287 289 291 293 294 295 296 297 298 298 296 295 296 297 294 286 277 271 268 266 264 261 257 253 251 249 245
334 332 332 331 330 329 326 323 320 318 315 311 307 305 304 304 304 304 306 308 308 310 311 312 312 312 311 311 312 312 313 312 311 309 307 305 302 299 296 294 290 285 279 275 273 272 272 271 271 272 273 274 275 277 278 280 282 283 284 286 288 289 291 293 294 296 298 298 297 295 296 297 297 292 281 272 269 268 267 264 260 256 253 251 248
332 332 332 332 332 331 329 324 320 318 317 315 313 310 307 304 303 302 303 304 305 307 309 309 309 309 308 308 309 310 312 312 311 308 306 304 302 299 297 294 291 286 281 276 273 271 271 270 269 270 271 272 273 274 276 278 279 281 282 283 286 287 289 291 293 295 297 298 298 297 296 296 298 296 286 275 270 269 269 268 265 259 254 252 250
331 332 332 333 333 332 330 327 322 319 317 316 315 312 310 307 304 303 303 303 304 305 305 305 305 305 305 306 307 308 310 311 311 308 305 303 301 299 296 294 291 287 282 277 273 271 270 269 268 268 269 270 271 272 273 276 278 279 280 281 283 285 287 289 292 293 295 297 298 297 295 296 297 296 291 280 272 270 272 272 269 263 257 253 251
331 332 333 333 333 332 331 328 325 322 321 320 318 315 312 309 307 305 305 305 304 303 302 301 301 302 303 305 306 306 308 309 310 308 306 303 300 298 295 293 291 288 283 278 274 271 269 269 268 267 267 268 269 270 271 273 275 277 279 280 280 282 285 287 289 291 293 295 297 297 295 294 296 296 294 285 276 273 275 276 274 267 259 253 251
333 333 333 333 332 331 330 328 326 325 324 324 323 321 318 316 312 310 308 306 304 302 301 298 297 298 300 302 303 305 307 308 309 309 307 304 300 297 294 292 290 288 284 280 276 273 270 268 268 267 267 267 267 269 270 271 273 275 277 278 278 279 282 284 286 289 291 293 296 297 294 293 294 295 295 290 282 277 278 280 278 271 261 253 250
333 333 333 332 331 330 329 328 327 327 326 325 323 322 322 321 319 316 313 309 305 303 300 298 296 296 297 298 300 303 306 307 308 308 308 305 301 296 293 290 289 287 284 280 277 274 271 269 268 267 267 267 267 267 268 269 270 272 275 276 277 277 278 281 283 285 288 291 293 295 294 291 292 295 295 291 285 281 281 283 282 275 264 254 249
333 332 331 331 330 329 328 328 328 328 327 324 322 319 318 318 317 317 315 313 309 304 300 299 296 295 295 296 298 301 303 306 307 308 308 307 302 295 292 289 288 287 285 281 277 275 273 270 268 266 266 266 267 267 267 268 269 270 273 274 275 275 276 278 280 282 285 288 291 293 293 289 289 293 295 291 286 283 283 285 285 279 266 256 249
332 331 330 330 329 328 327 327 328 328 327 325 322 319 316 314 313 312 312 312 310 306 301 299 297 294 294 295 297 299 301 304 306 306 307 307 302 296 292 288 287 287 285 282 279 275 273 271 268 266 266 266 266 266 266 267 268 269 271 272 273 273 274 275 277 279 282 285 288 291 290 287 286 291 294 291 285 282 282 286 288 282 269 257 250
331 330 329 329 327 326 327 328 329 329 328 328 326 323 320 317 314 310 309 310 309 307 303 300 297 295 294 294 295 296 299 302 304 304 306 306 303 298 293 289 286 285 284 282 280 277 274 272 270 267 265 264 264 264 265 265 266 268 269 271 271 271 272 274 274 276 278 282 285 288 287 284 282 287 292 291 286 281 280 283 287 285 274 259 250
330 329 328 327 326 326 328 330 331 330 330 329 328 327 325 323 319 314 311 310 309 307 305 303 300 298 296 295 294 295 298 300 301 303 304 305 304 300 294 290 287 284 284 283 280 278 275 273 271 268 265 263 262 262 262 263 265 266 268 269 269 269 270 272 272 273 275 278 282 284 284 281 279 284 289 290 287 282 278 279 282 285 278 263 251
329 328 327 326 327 329 331 331 331 330 330 329 328 328 327 325 324 320 316 313 311 309 307 306 304 301 298 297 296 296 296 299 300 300 301 303 304 301 295 290 286 284 283 283 281 279 276 273 272 270 266 262 261 260 260 261 263 264 266 267 267 268 269 270 270 270 272 275 278 280 281 280 278 280 285 288 288 283 278 275 276 280 280 270 255
328 327 326 328 329 331 332 331 330 329 328 328 327 327 326 325 324 322 319 317 315 312 310 309 308 305 303 301 300 298 296 297 298 297 299 302 303 301 296 289 285 284 283 283 282 280 277 275 272 270 267 263 260 259 258 259 260 262 263 264 265 266 267 268 268 268 269 272 275 277 278 279 277 277 281 286 288 285 279 275 272 273 275 273 262
327 326 327 329 331 331 331 330 329 328 327 326 325 325 325 325 324 323 320 318 316 314 313 313 312 309 307 305 304 301 297 295 295 295 297 300 302 301 296 289 285 283 283 283 283 281 278 276 274 271 267 263 260 258 257 256 258 260 261 261 262 263 266 266 265 265 267 270 273 275 277 279 278 276 278 283 286 286 282 276 271 267 267 268 266
327 327 329 331 331 330 329 328 327 326 325 324 324 324 324 324 325 324 322 320 317 314 313 315 314 312 310 309 306 301 297 295 294 293 295 298 301 301 297 291 286 283 283 283 283 282 279 276 275 273 269 264 260 258 256 255 256 257 258 258 259 261 264 264 262 262 264 268 272 274 276 279 279 275 275 280 285 287 285 279 272 266 264 263 264
326 328 330 331 330 328 327 325 324 323 323 322 322 323 323 324 325 325 323 322 320 317 314 312 312 313 312 309 305 301 297 294 292 292 293 296 300 301 298 293 287 283 282 283 283 282 279 277 276 275 271 265 261 258 256 254 254 254 254 254 255 259 262 261 260 260 263 268 272 274 276 279 279 274 272 276 282 286 286 282 276 268 263 260 258
326 328 330 330 328 326 325 323 323 322 322 322 322 322 323 324 324 324 323 322 321 319 316 311 309 311 311 308 303 300 296 293 292 291 292 295 298 300 299 293 287 282 281 282 283 282 280 278 276 276 273 266 260 258 255 252 251 251 251 251 253 257 259 259 257 258 262 267 272 274 275 278 279 275 271 271 275 280 284 284 279 272 265 261 257
328 329 329 328 327 325 323 321 322 322 322 322 322 322 322 323 323 323 323 322 320 319 319 314 308 306 307 306 302 299 295 292 291 290 290 293 295 297 297 293 286 281 280 281 282 282 281 279 277 276 274 266 259 255 252 250 249 248 248 248 250 255 257 256 255 257 261 267 271 272 272 274 277 277 273 269 268 271 277 281 280 276 268 262 257
328 327 326 326 326 324 321 321 321 322 322 323 323 322 321 321 321 321 321 321 319 318 318 316 309 302 302 303 300 297 294 291 290 289 288 289 292 295 296 291 285 280 279 280 281 282 282 280 277 276 273 266 258 253 250 248 247 246 245 246 248 252 253 253 254 256 259 265 270 271 271 273 276 277 274 269 265 264 268 272 275 277 275 268 262
326 325 325 325 325 323 322 321 322 323 323 323 323 322 321 320 320 320 320 319 318 316 316 316 311 302 299 300 299 296 292 290 288 286 286 287 289 294 294 290 284 279 278 279 281 281 281 280 277 275 272 266 257 252 249 247 246 245 244 244 246 249 250 251 253 255 256 261 267 271 273 275 277 277 272 267 263 261 261 264 268 272 275 275 272
325 326 327 327 325 324 323 322 323 325 325 325 325 324 323 321 320 319 319 317 317 316 314 315 312 305 299 300 299 295 291 288 285 284 285 285 288 294 294 289 283 279 277 278 280 280 280 280 277 273 270 265 257 251 249 247 245 243 243 243 243 246 249 250 251 253 253 256 262 268 273 276 277 273 268 266 265 263 261 262 264 265 264 264 265
328 329 329 327 326 326 324 323 324 326 327 326 325 323 322 320 319 319 318 316 316 315 314 312 310 306 301 300 298 294 288 285 283 283 284 285 289 294 292 288 283 279 278 278 279 279 279 279 276 272 269 265 257 251 249 248 245 243 243 243 243 244 246 248 251 253 252 253 256 261 266 269 267 264 263 265 268 270 270 269 267 266 264 262 260
330 329 327 327 327 327 325 323 324 325 325 325 324 323 322 321 320 319 318 317 315 315 313 310 307 304 301 299 296 291 286 282 282 283 284 285 290 292 290 286 282 280 278 278 278 278 278 278 276 272 268 264 257 251 248 248 246 244 243 244 243 243 244 247 251 253 253 251 249 248 250 253 257 260 264 266 269 273 275 274 272 268 264 264 267
329 328 327 328 328 327 323 322 322 322 324 326 327 327 325 324 323 321 319 317 316 315 313 309 304 301 300 298 295 291 286 282 283 284 283 284 288 289 286 284 281 279 277 277 277 277 278 277 276 272 267 263 257 251 248 248 246 245 244 244 244 243 243 245 249 252 253 251 245 237 237 244 252 258 262 266 268 270 272 272 271 269 266 264 263
327 326 326 327 327 325 323 323 322 320 322 326 328 327 326 325 324 321 320 319 318 317 315 311 305 300 300 299 296 292 287 284 285 284 281 281 284 285 284 282 280 277 276 276 276 277 278 278 276 271 266 261 256 251 249 248 247 246 245 245 246 244 243 244 247 251 252 251 246 238 236 240 245 251 258 262 264 266 268 269 269 268 267 265 261
325 325 326 328 328 326 325 325 323 319 321 324 325 326 326 325 323 324 323 322 323 322 319 314 309 305 303 301 297 294 290 287 285 282 277 277 280 282 282 281 278 276 275 275 276 277 278 277 274 269 265 261 256 252 249 247 246 246 246 246 246 246 245 245 247 250 252 252 249 244 241 241 242 246 252 256 259 262 264 265 267 268 266 264 263
328 329 330 331 330 328 328 326 320 318 319 322 323 325 326 325 325 327 325 320 322 325 323 318 314 309 305 301 297 294 292 287 284 278 273 274 277 279 281 279 277 274 274 274 275 277 277 275 272 268 264 260 255 251 248 246 245 246 246 247 247 247 247 247 247 249 250 252 253 250 247 247 245 244 246 250 255 260 263 263 262 262 263 263 261
332 332 332 331 329 328 327 322 316 316 318 321 324 326 327 326 326 327 320 312 317 324 324 320 316 312 308 305 299 295 292 288 283 276 270 270 274 277 279 277 275 273 272 273 274 276 276 274 271 267 264 260 255 250 247 245 244 245 245 246 246 247 247 247 249 249 250 252 253 252 250 250 249 249 248 249 252 256 261 265 264 262 262 262 259
331 330 330 328 326 324 321 317 316 317 320 323 325 326 326 326 326 322 312 309 316 323 324 321 317 313 310 308 303 297 293 289 284 276 268 267 271 275 277 275 273 271 271 271 273 275 275 273 270 267 263 259 254 249 246 244 243 243 244 243 243 244 247 249 251 251 250 250 251 251 252 253 254 254 253 252 252 253 256 260 262 263 266 268 265
328 328 326 324 322 320 319 319 321 323 325 327 328 326 325 324 320 314 310 311 317 322 321 320 318 313 310 309 306 301 296 291 286 277 266 264 268 272 274 273 271 270 270 271 272 274 274 273 270 266 261 258 254 249 244 242 241 241 241 241 242 245 249 252 252 251 250 251 252 253 255 255 255 256 255 253 252 251 252 255 259 262 266 268 267
327 326 324 322 321 321 323 324 327 328 329 329 329 326 324 320 315 312 313 315 319 320 320 319 318 315 312 310 307 304 299 293 287 276 265 262 266 271 272 271 270 269 269 270 272 273 273 272 268 264 261 258 255 249 242 239 239 239 238 239 242 246 249 251 251 250 251 254 255 255 256 256 256 256 255 253 250 249 251 255 259 263 264 263 263
326 326 325 325 325 326 327 329 330 331 330 329 327 325 322 319 315 314 316 317 319 320 320 319 318 316 314 312 309 306 301 295 286 274 264 260 263 269 271 270 268 268 268 270 272 273 272 270 266 263 260 258 255 249 241 237 237 237 238 239 242 245 247 249 251 251 252 253 255 255 256 256 256 256 255 254 252 252 253 254 256 258 259 260 261
327 327 328 328 328 329 329 330 331 332 332 331 330 327 323 321 320 319 319 320 321 322 321 320 318 316 315 314 312 308 303 295 284 271 261 257 259 265 268 268 267 267 268 270 272 273 271 268 264 262 259 257 256 250 243 238 235 236 237 239 242 244 247 249 252 254 254 254 254 255 255 255 256 256 256 256 256 255 254 254 255 255 256 258 259
329 329 329 329 329 330 330 330 332 333 334 333 333 331 327 325 323 322 322 323 323 323 321 320 319 317 316 315 313 309 303 294 280 266 257 254 257 262 265 266 265 265 267 270 272 272 270 266 263 261 258 257 257 254 248 243 238 236 237 239 242 245 247 250 253 255 257 257 256 257 257 257 258 257 256 256 256 256 256 256 256 256 256 256 256
330 330 329 330 331 332 332 332 332 333 334 334 334 333 331 328 325 324 324 324 323 322 321 320 319 318 318 316 312 307 302 292 277 263 255 253 255 259 262 263 262 262 266 269 271 271 268 264 261 260 258 258 258 256 254 251 246 244 243 243 245 248 249 251 254 256 258 260 260 260 259 258 257 257 256 256 255 255 255 255 255 256 256 256 256
332 332 332 333 334 334 333 332 332 333 333 334 334 334 333 329 327 327 326 325 323 321 321 321 319 319 319 317 311 305 300 291 274 259 252 249 250 255 258 259 259 260 264 267 269 269 266 262 260 259 258 259 260 259 258 257 255 254 252 251 251 251 251 252 254 257 259 259 258 257 256 256 256 256 256 256 255 254 253 253 254 254 254 255 255
334 335 335 335 335 335 334 333 333 333 333 334 334 334 333 330 329 328 326 324 322 322 322 321 319 319 319 316 310 304 298 287 269 255 247 244 246 250 254 255 255 257 260 263 266 266 264 262 259 256 256 257 259 260 261 261 261 260 258 257 256 255 253 252 252 255 257 257 257 257 256 256 256 256 255 255 254 254 253 252 252 253 253 253 253
336 336 336 337 337 336 335 334 334 334 335 335 335 334 332 331 330 328 327 325 323 323 323 322 320 319 319 316 311 304 297 283 263 250 244 241 242 247 250 252 252 254 257 260 262 262 262 261 258 254 253 253 255 259 262 262 262 262 261 261 260 257 254 251 251 254 258 260 261 261 259 257 256 255 254 254 253 252 251 250 250 250 251 251 251
337 337 338 339 338 338 337 336 336 336 337 336 335 334 332 332 332 331 329 327 324 323 323 323 321 319 318 315 311 304 295 279 259 247 242 239 240 243 246 248 249 251 255 257 258 259 260 258 256 253 251 251 253 258 262 262 263 263 263 262 261 258 255 253 254 259 263 264 265 263 261 260 259 256 254 251 249 249 248 248 246 246 246 248 249
Height
3101 3099 3096 3094 3091 3089 3086 3083 3080 3077 3075 3071 3069 3066 3063 3059 3056 3053 3049 3046 3043 3039 3036 3034 3031 3028 3026 3023 3020 3018 3014 3011 3008 3005 3003 3001 2999 2997 2996 2994 2992 2990 2988 2986 2984 2981 2979 2977 2974 2972 2969 2967 2966 2964 2962 2960 2959 2958 2957 2956 2955 2954 2953 2955 2958 2960 2960 2960 2962 2964 2965 2965 2965 2966 2968 2970 2972 2974 2977 2980 2983 2987 2990 2994 2997
3099 3097 3094 3091 3088 3086 3083 3080 3077 3074 3071 3068 3065 3062 3059 3056 3053 3049 3046 3042 3039 3036 3033 3030 3027 3024 3022 3019 3016 3014 3011 3007 3004 3002 2999 2997 2995 2993 2992 2990 2988 2986 2985 2983 2981 2979 2976 2974 2972 2969 2967 2965 2963 2961 2960 2958 2957 2956 2955 2954 2953 2953 2952 2951 2954 2956 2956 2956 2956 2957 2959 2960 2960 2961 2962 2965 2967 2969 2971 2974 2977 2981 2985 2989 2992
3096 3094 3091 3088 3086 3083 3080 3077 3074 3072 3069 3065 3062 3059 3056 3053 3049 3046 3042 3039 3036 3033 3030 3027 3024 3021 3018 3015 3012 3010 3007 3004 3000 2997 2995 2993 2991 2989 2987 2986 2984 2982 2981 2979 2978 2976 2974 2972 2969 2967 2964 2962 2960 2959 2957 2956 2954 2953 2952 2952 2951 2951 2951 2949 2950 2952 2952 2952 2953 2952 2952 2954 2956 2957 2957 2959 2962 2964 2966 2969 2972 2975 2979 2983 2987
3093 3091 3089 3086 3083 3080 3077 3075 3072 3069 3065 3062 3058 3055 3052 3049 3046 3042 3039 3036 3033 3029 3026 3023 3020 3017 3014 3011 3009 3006 3003 3000 2996 2993 2990 2988 2987 2985 2983 2982 2980 2978 2976 2975 2974 2972 2970 2969 2967 2965 2962 2960 2958 2956 2955 2953 2952 2951 2949 2949 2948 2948 2948 2948 2947 2947 2949 2948 2948 2947 2947 2949 2951 2952 2953 2955 2956 2959 2961 2964 2967 2971 2974 2977 2981
3090 3088 3086 3083 3080 3077 3074 3071 3068 3065 3062 3058 3055 3052 3048 3045 3042 3039 3036 3032 3029 3025 3022 3019 3016 3012 3009 3007 3005 3002 2999 2996 2992 2989 2986 2983 2982 2980 2979 2977 2976 2974 2972 2971 2970 2969 2967 2965 2964 2962 2960 2957 2956 2954 2952 2951 2949 2948 2947 2946 2945 2945 2945 2945 2945 2944 2944 2944 2942 2942 2943 2944 2945 2947 2949 2951 2952 2954 2956 2958 2962 2965 2968 2971 2974
3087 3085 3083 3080 3077 3074 3071 3068 3064 3061 3058 3054 3051 3048 3045 3041 3038 3035 3032 3029 3025 3022 3018 3015 3011 3008 3005 3002 3000 2997 2994 2992 2988 2984 2982 2979 2977 2975 2974 2972 2972 2971 2969 2967 2966 2965 2964 2962 2961 2959 2957 2955 2953 2951 2950 2948 2947 2946 2944 2943 2942 2941 2941 2941 2941 2940 2939 2939 2938 2937 2938 2938 2939 2941 2944 2946 2948 2950 2952 2953 2956 2959 2963 2966 2968
3085 3082 3079 3076 3073 3070 3067 3064 3061 3057 3054 3051 3047 3044 3041 3037 3034 3031 3028 3025 3021 3017 3014 3010 3007 3004 3001 2998 2995 2992 2989 2987 2984 2980 2978 2975 2972 2970 2969 2967 2967 2966 2965 2964 2962 2961 2960 2959 2957 2956 2955 2953 2951 2949 2947 2946 2945 2943 2942 2940 2939 2938 2937 2936 2936 2936 2936 2934 2934 2934 2934 2933 2934 2936 2937 2938 2942 2946 2948 2949 2951 2953 2956 2960 2963
3081 3078 3076 3073 3069 3066 3063 3060 3057 3053 3050 3047 3043 3040 3037 3033 3030 3027 3024 3020 3017 3013 3009 3006 3003 3000 2997 2994 2991 2988 2985 2982 2979 2976 2973 2970 2968 2965 2964 2962 2961 2961 2960 2959 2958 2957 2956 2955 2954 2953 2952 2950 2949 2947 2945 2943 2942 2940 2939 2937 2936 2935 2933 2932 2932 2932 2932 2931 2931 2930 2930 2930 2930 2931 2932 2932 2934 2939 2943 2945 2946 2947 2950 2954 2957
3078 3075 3072 3069 3066 3063 3059 3056 3052 3049 3046 3042 3039 3036 3032 3029 3025 3022 3019 3016 3012 3009 3005 3002 2999 2996 2993 2990 2986 2983 2980 2977 2974 2971 2969 2966 2963 2961 2959 2957 2956 2955 2955 2955 2954 2953 2952 2951 2950 2949 2948 2947 2946 2944 2943 2941 2939 2938 2936 2935 2933 2931 2930 2929 2928 2927 2927 2927 2928 2928 2927 2927 2926 2926 2927 2928 2928 2931 2935 2939 2941 2942 2945 2948 2951
3076 3073 3069 3066 3063 3059 3055 3051 3048 3044 3041 3037 3034 3031 3027 3024 3021 3017 3015 3011 3008 3004 3001 2998 2995 2992 2989 2986 2982 2979 2976 2973 2969 2967 2964 2961 2959 2956 2954 2952 2951 2950 2949 2949 2949 2948 2947 2947 2946 2945 2944 2944 2943 2941 2940 2938 2936 2935 2933 2932 2930 2929 2927 2925 2924 2923 2922 2922 2922 2923 2924 2923 2922 2922 2922 2923 2923 2924 2927 2931 2935 2937 2939 2943 2946
3073 3070 3067 3063 3060 3056 3051 3047 3043 3040 3036 3032 3029 3025 3022 3019 3016 3013 3010 3007 3003 3000 2996 2993 2990 2987 2985 2981 2978 2975 2971 2968 2965 2962 2960 2956 2954 2951 2949 2947 2946 2945 2944 2943 2943 2943 2942 2942 2941 2941 2940 2939 2939 2938 2937 2935 2934 2932 2931 2929 2928 2926 2924 2922 2921 2919 2918 2917 2917 2917 2919 2919 2919 2918 2918 2918 2918 2918 2920 2924 2927 2929 2932 2937 2940
3070 3067 3063 3060 3056 3052 3048 3043 3039 3035 3031 3027 3023 3019 3016 3013 3010 3007 3005 3002 2998 2995 2991 2988 2986 2983 2980 2976 2973 2970 2966 2963 2961 2958 2955 2952 2949 2946 2944 2942 2940 2939 2939 2938 2937 2937 2936 2937 2936 2936 2936 2935 2935 2934 2933 2932 2930 2929 2928 2926 2925 2923 2921 2920 2918 2916 2915 2913 2912 2911 2912 2914 2915 2914 2913 2914 2914 2914 2914 2917 2920 2921 2924 2930 2935
3066 3063 3059 3055 3051 3046 3042 3038 3034 3030 3026 3022 3018 3014 3010 3007 3004 3001 3000 2997 2993 2990 2986 2983 2981 2978 2975 2971 2968 2965 2961 2958 2956 2953 2950 2947 2944 2941 2939 2937 2935 2934 2933 2933 2932 2931 2931 2931 2931 2931 2931 2931 2930 2930 2929 2928 2927 2926 2924 2923 2922 2920 2919 2917 2915 2914 2912 2910 2909 2907 2907 2908 2910 2910 2909 2909 2909 2909 2909 2910 2914 2915 2915 2921 2927
3063 3058 3054 3050 3046 3041 3037 3032 3028 3024 3021 3017 3013 3009 3005 3002 2998 2995 2993 2991 2987 2984 2981 2978 2975 2973 2969 2966 2963 2959 2956 2953 2950 2947 2944 2941 2939 2936 2934 2932 2930 2929 2928 2927 2926 2926 2925 2925 2926 2926 2926 2926 2925 2925 2924 2924 2923 2922 2921 2920 2918 2917 2916 2914 2913 2911 2909 2908 2906 2904 2903 2903 2904 2905 2905 2905 2905 2905 2905 2904 2906 2909 2910 2911 2917
3058 3054 3050 3046 3041 3037 3032 3028 3023 3019 3015 3011 3008 3004 3000 2997 2993 2990 2988 2985 2982 2978 2976 2973 2970 2967 2963 2960 2957 2953 2950 2947 2945 2942 2939 2936 2933 2931 2929 2926 2925 2923 2922 2921 2920 2920 2920 2920 2920 2920 2921 2921 2921 2920 2920 2919 2918 2918 2917 2916 2915 2913 2912 2911 2910 2908 2906 2905 2903 2901 2900 2898 2898 2899 2900 2901 2901 2901 2901 2900 2899 2902 2904 2904 2908
3054 3049 3045 3041 3037 3032 3028 3024 3019 3015 3011 3007 3003 2999 2995 2992 2988 2985 2982 2979 2976 2973 2970 2967 2964 2961 2957 2954 2951 2948 2944 2942 2939 2936 2933 2930 2927 2925 2924 2921 2919 2918 2917 2915 2914 2914 2914 2914 2914 2915 2915 2915 2915 2915 2915 2914 2914 2913 2913 2912 2911 2909 2908 2907 2906 2905 2903 2902 2900 2898 2897 2895 2893 2893 2894 2895 2896 2896 2896 2896 2895 2895 2897 2898 2900
3049 3045 3040 3036 3032 3027 3023 3019 3015 3010 3006 3002 2998 2994 2990 2987 2983 2979 2976 2973 2970 2967 2964 2961 2958 2955 2951 2948 2945 2942 2939 2936 2933 2930 2927 2925 2922 2920 2918 2916 2914 2913 2911 2910 2909 2908 2908 2907 2908 2909 2909 2910 2910 2910 2910 2909 2909 2908 2908 2908 2907 2905 2904 2903 2902 2901 2900 2898 2897 2896 2894 2892 2890 2888 2888 2889 2891 2892 2892 2891 2891 2890 2891 2892 2893
3045 3040 3036 3031 3026 3022 3018 3015 3010 3006 3002 2998 2994 2990 2986 2982 2978 2974 2971 2967 2964 2961 2957 2954 2951 2948 2945 2942 2939 2936 2933 2930 2927 2925 2922 2919 2917 2914 2912 2911 2909 2907 2905 2904 2903 2902 2902 2901 2902 2902 2903 2904 2904 2904 2904 2904 2904 2904 2903 2903 2902 2901 2900 2899 2899 2897 2896 2895 2894 2893 2891 2889 2887 2885 2884 2883 2884 2886 2887 2887 2886 2885 2885 2886 2887
3039 3034 3030 3026 3022 3018 3013 3010 3006 3002 2997 2993 2989 2985 2981 2977 2973 2969 2965 2961 2958 2954 2951 2948 2945 2942 2939 2935 2933 2930 2927 2924 2921 2919 2916 2913 2911 2909 2906 2905 2903 2902 2900 2898 2897 2896 2896 2895 2895 2896 2897 2897 2898 2899 2899 2899 2899 2899 2899 2898 2898 2897 2896 2896 2895 2894 2892 2891 2890 2889 2888 2886 2884 2882 2881 2879 2878 2879 2881 2882 2881 2880 2879 2880 2882
3033 3029 3025 3021 3016 3013 3009 3005 3001 2997 2993 2988 2984 2980 2975 2971 2967 2963 2959 2956 2952 2948 2944 2942 2939 2935 2932 2929 2926 2924 2921 2918 2916 2913 2910 2908 2906 2903 2900 2899 2897 2896 2895 2893 2892 2891 2890 2890 2889 2890 2891 2891 2892 2892 2893 2893 2893 2894 2893 2893 2893 2892 2892 2892 2891 2890 2889 2888 2887 2886 2885 2883 2881 2879 2878 2876 2874 2874 2874 2875 2876 2875 2874 2874 2876
3029 3024 3020 3015 3011 3008 3004 3000 2996 2991 2987 2983 2978 2974 2970 2966 2962 2958 2954 2950 2947 2942 2938 2935 2932 2929 2925 2922 2920 2918 2915 2912 2910 2907 2904 2902 2899 2897 2895 2893 2891 2890 2889 2887 2886 2885 2884 2884 2884 2884 2885 2885 2886 2886 2887 2887 2888 2888 2888 2888 2888 2888 2888 2887 2886 2886 2885 2884 2883 2883 2881 2879 2877 2876 2875 2873 2871 2870 2869 2869 2870 2870 2870 2869 2870
3025 3020 3016 3011 3007 3003 2998 2994 2989 2984 2980 2976 2971 2967 2963 2960 2956 2952 2948 2945 2941 2936 2932 2929 2925 2922 2919 2916 2913 2911 2909 2906 2904 2901 2899 2896 2894 2891 2889 2887 2886 2885 2883 2882 2881 2880 2879 2878 2878 2878 2879 2879 2880 2880 2881 2881 2882 2883 2883 2883 2883 2883 2883 2883 2882 2882 2881 2880 2880 2879 2878 2876 2874 2874 2872 2870 2869 2867 2866 2866 2865 2865 2865 2866 2866
3021 3016 3012 3007 3003 2998 2993 2988 2983 2978 2974 2969 2965 2962 2958 2954 2951 2947 2943 2939 2934 2930 2926 2922 2919 2916 2913 2910 2907 2904 2902 2900 2898 2895 2893 2890 2888 2885 2883 2881 2880 2879 2878 2877 2876 2875 2874 2873 2873 2873 2873 2873 2874 2875 2875 2876 2876 2877 2877 2878 2878 2878 2878 2878 2878 2877 2877 2876 2876 2876 2875 2873 2871 2871 2869 2868 2866 2865 2864 2863 2863 2862 2861 2862 2863
3017 3012 3008 3003 2998 2992 2987 2982 2977 2972 2968 2964 2960 2956 2952 2949 2945 2941 2937 2933 2928 2924 2920 2916 2913 2909 2906 2903 2900 2898 2896 2894 2891 2889 2887 2884 2882 2879 2877 2875 2874 2873 2872 2871 2871 2870 2869 2868 2868 2867 2867 2867 2868 2869 2869 2870 2871 2872 2872 2872 2873 2873 2873 2874 2873 2873 2873 2872 2872 2872 2871 2869 2868 2868 2867 2865 2864 2862 2861 2861 2860 2860 2859 2859 2860
3011 3006 3002 2997 2991 2985 2980 2976 2972 2967 2963 2958 2954 2950 2946 2943 2939 2935 2930 2926 2922 2918 2913 2909 2906 2903 2900 2897 2894 2892 2889 2887 2885 2883 2881 2878 2876 2873 2871 2869 2868 2867 2866 2866 2865 2865 2864 2863 2863 2862 2861 2862 2862 2863 2864 2865 2866 2866 2867 2867 2868 2868 2869 2869 2869 2869 2868 2869 2869 2868 2868 2866 2865 2865 2864 2863 2862 2860 2859 2859 2858 2858 2858 2857 2858
3005 3001 2996 2990 2984 2979 2975 2970 2966 2962 2957 2953 2948 2944 2940 2937 2933 2929 2924 2920 2916 2911 2907 2903 2900 2896 2893 2891 2888 2885 2882 2880 2878 2876 2874 2872 2870 2867 2865 2864 2862 2861 2860 2860 2860 2859 2858 2858 2858 2857 2856 2856 2856 2857 2859 2860 2861 2861 2862 2863 2863 2864 2864 2865 2865 2864 2864 2864 2865 2865 2864 2863 2862 2862 2861 2860 2859 2858 2857 2856 2856 2856 2856 2856 2856
3001 2996 2990 2984 2979 2974 2969 2965 2961 2957 2952 2947 2943 2938 2934 2930 2927 2923 2918 2914 2909 2904 2900 2897 2893 2889 2887 2884 2881 2878 2876 2874 2871 2869 2868 2866 2864 2861 2859 2858 2857 2855 2855 2855 2855 2854 2853 2853 2852 2852 2851 2851 2851 2852 2853 2855 2856 2856 2857 2858 2858 2859 2860 2860 2860 2860 2860 2861 2861 2861 2861 2860 2860 2859 2858 2858 2857 2856 2855 2854 2854 2854 2854 2854 2855
2996 2990 2985 2979 2974 2969 2964 2960 2956 2951 2947 2942 2938 2933 2929 2924 2920 2916 2912 2907 2902 2898 2894 2890 2887 2883 2880 2877 2875 2872 2869 2867 2865 2863 2861 2860 2858 2855 2854 2853 2851 2850 2849 2849 2849 2849 2848 2848 2847 2847 2846 2846 2846 2847 2848 2850 2850 2851 2852 2853 2854 2855 2856 2856 2856 2856 2856 2857 2858 2858 2857 2857 2857 2856 2856 2855 2855 2854 2853 2852 2852 2852 2852 2852 2853
2990 2984 2979 2974 2969 2963 2959 2955 2951 2946 2941 2936 2931 2927 2922 2918 2914 2910 2905 2900 2895 2891 2887 2883 2880 2877 2874 2871 2868 2865 2863 2861 2858 2856 2855 2853 2852 2850 2848 2847 2846 2844 2843 2843 2843 2843 2843 2843 2842 2842 2841 2841 2841 2842 2844 2844 2845 2846 2847 2848 2849 2850 2851 2852 2851 2852 2853 2853 2854 2854 2854 2854 2853 2853 2853 2853 2852 2852 2851 2850 2849 2849 2850 2850 2851
2983 2979 2974 2969 2964 2959 2954 2950 2946 2941 2935 2929 2924 2920 2915 2911 2907 2903 2898 2893 2888 2884 2880 2876 2873 2870 2867 2864 2861 2858 2856 2854 2852 2850 2848 2847 2845 2844 2842 2841 2840 2839 2838 2838 2838 2838 2838 2838 2837 2837 2837 2836 2837 2838 2839 2839 2840 2841 2842 2843 2845 2846 2847 2847 2847 2848 2849 2850 2850 2851 2851 2851 2850 2850 2850 2850 2849 2849 2849 2848 2847 2847 2847 2848 2848
2978 2973 2969 2964 2960 2955 2950 2945 2940 2935 2929 2923 2918 2913 2909 2905 2900 2896 2891 2886 2881 2876 2872 2869 2865 2862 2860 2857 2854 2852 2849 2847 2845 2843 2842 2840 2839 2837 2836 2835 2834 2833 2833 2832 2833 2833 2833 2832 2832 2832 2832 2832 2832 2833 2834 2834 2835 2836 2838 2839 2841 2842 2843 2843 2843 2844 2846 2846 2846 2847 2848 2848 2847 2847 2847 2846 2846 2846 2846 2846 2846 2845 2845 2845 2846
2973 2968 2963 2958 2954 2948 2943 2938 2932 2927 2922 2917 2911 2906 2902 2898 2893 2889 2884 2879 2874 2869 2865 2862 2858 2855 2852 2850 2848 2845 2842 2841 2839 2837 2835 2834 2833 2831 2831 2830 2829 2828 2827 2827 2827 2828 2828 2827 2827 2827 2827 2827 2828 2828 2829 2829 2831 2832 2833 2835 2836 2838 2839 2839 2839 2840 2842 2843 2843 2843 2844 2845 2844 2844 2844 2843 2843 2843 2843 2844 2844 2844 2844 2843 2843
2969 2963 2958 2952 2947 2942 2936 2930 2925 2921 2915 2911 2905 2900 2895 2890 2886 2881 2876 2871 2867 2862 2858 2854 2851 2848 2845 2843 2841 2838 2836 2834 2832 2830 2829 2828 2827 2826 2825 2824 2823 2823 2822 2822 2822 2822 2822 2822 2822 2822 2822 2823 2823 2823 2824 2825 2826 2828 2829 2830 2832 2833 2835 2835 2835 2837 2838 2839 2840 2840 2840 2841 2841 2841 2841 2840 2840 2840 2841 2841 2842 2842 2842 2842 2842
2963 2957 2952 2946 2940 2935 2930 2925 2920 2915 2910 2905 2900 2895 2889 2884 2879 2874 2869 2864 2859 2855 2850 2846 2843 2841 2838 2836 2834 2831 2829 2827 2825 2823 2822 2822 2821 2820 2819 2818 2818 2817 2817 2817 2817 2817 2817 2817 2817 2818 2818 2818 2819 2819 2819 2821 2822 2824 2825 2825 2827 2829 2830 2831 2831 2833 2834 2836 2837 2838 2838 2838 2838 2838 2838 2838 2837 2837 2838 2838 2839 2839 2839 2840 2840
2957 2951 2946 2941 2935 2930 2924 2919 2914 2910 2905 2900 2894 2889 2883 2878 2872 2867 2861 2856 2851 2847 2843 2839 2836 2834 2831 2829 2826 2824 2822 2820 2818 2817 2817 2816 2816 2814 2813 2812 2812 2812 2812 2812 2812 2812 2812 2812 2812 2813 2813 2814 2814 2814 2815 2816 2818 2819 2820 2821 2823 2825 2826 2827 2827 2828 2830 2832 2834 2835 2836 2836 2836 2836 2835 2835 2835 2835 2835 2836 2836 2837 2837 2837 2837
2953 2947 2941 2936 2931 2925 2919 2914 2908 2903 2899 2893 2887 2881 2875 2870 2865 2859 2853 2848 2843 2838 2835 2831 2828 2827 2824 2822 2819 2817 2815 2812 2811 2811 2811 2811 2810 2809 2808 2807 2807 2807 2807 2807 2807 2807 2807 2807 2808 2808 2809 2810 2810 2809 2810 2812 2813 2815 2815 2816 2818 2820 2822 2823 2823 2824 2826 2828 2830 2832 2833 2833 2833 2833 2832 2832 2832 2832 2832 2833 2834 2834 2834 2835 2835
2950 2944 2939 2933 2927 2921 2915 2909 2902 2896 2891 2885 2879 2873 2867 2861 2857 2851 2845 2840 2835 2831 2827 2823 2821 2819 2817 2815 2812 2810 2808 2806 2804 2805 2805 2805 2804 2803 2802 2802 2801 2802 2802 2803 2803 2802 2802 2803 2803 2803 2804 2805 2805 2805 2806 2807 2809 2810 2811 2812 2814 2815 2817 2818 2819 2820 2822 2824 2826 2828 2829 2830 2830 2830 2830 2829 2829 2829 2829 2830 2831 2831 2831 2832 2833
2946 2940 2934 2928 2922 2916 2909 2903 2896 2889 2884 2878 2871 2865 2859 2853 2848 2843 2838 2834 2829 2825 2821 2817 2814 2812 2810 2808 2806 2803 2801 2799 2798 2799 2800 2799 2798 2798 2797 2797 2797 2797 2797 2798 2798 2798 2798 2798 2798 2799 2799 2800 2800 2800 2801 2803 2805 2806 2806 2808 2809 2811 2812 2814 2814 2816 2818 2819 2821 2823 2825 2825 2826 2826 2826 2826 2826 2826 2826 2827 2828 2827 2828 2829 2830
2941 2934 2927 2921 2916 2910 2904 2898 2890 2883 2877 2872 2865 2858 2852 2846 2841 2837 2833 2828 2824 2819 2815 2812 2809 2806 2803 2801 2799 2797 2795 2793 2793 2793 2794 2793 2793 2793 2792 2792 2792 2792 2793 2793 2794 2794 2794 2794 2794 2794 2795 2796 2796 2796 2797 2799 2801 2802 2802 2804 2805 2806 2808 2809 2810 2812 2814 2815 2817 2819 2820 2820 2821 2822 2823 2823 2823 2822 2822 2823 2824 2824 2824 2826 2828
2934 2929 2923 2917 2911 2905 2899 2892 2885 2877 2871 2865 2858 2852 2846 2840 2835 2831 2828 2823 2818 2814 2810 2807 2803 2800 2798 2795 2793 2791 2789 2788 2787 2787 2788 2787 2787 2787 2787 2787 2788 2788 2788 2789 2789 2790 2790 2790 2790 2790 2791 2791 2792 2792 2793 2795 2797 2798 2799 2800 2801 2802 2803 2803 2805 2808 2810 2811 2812 2814 2815 2816 2817 2818 2819 2819 2819 2819 2819 2819 2819 2819 2820 2823 2825
2928 2922 2917 2911 2905 2899 2893 2886 2879 2871 2864 2857 2851 2845 2839 2835 2830 2826 2822 2817 2813 2808 2805 2801 2798 2795 2792 2789 2787 2785 2783 2782 2782 2782 2782 2782 2782 2782 2782 2783 2783 2783 2784 2784 2785 2785 2786 2786 2786 2787 2787 2787 2788 2788 2789 2791 2793 2794 2795 2796 2797 2797 2798 2799 2802 2804 2806 2807 2808 2809 2810 2811 2813 2813 2814 2815 2815 2816 2816 2815 2814 2814 2816 2819 2820
2922 2916 2910 2904 2897 2891 2885 2878 2872 2865 2858 2851 2844 2838 2833 2829 2825 2821 2816 2811 2806 2802 2799 2795 2792 2789 2786 2783 2781 2778 2777 2776 2777 2777 2776 2777 2777 2777 2777 2778 2779 2779 2780 2780 2780 2781 2782 2782 2783 2783 2783 2783 2784 2785 2786 2788 2789 2791 2791 2792 2792 2793 2794 2796 2798 2800 2801 2802 2803 2804 2806 2807 2808 2809 2810 2811 2811 2811 2811 2810 2810 2811 2813 2814 2814
2916 2910 2904 2897 2890 2883 2877 2870 2864 2858 2851 2845 2838 2832 2827 2823 2819 2815 2809 2804 2800 2796 2792 2789 2786 2783 2780 2777 2775 2773 2771 2771 2771 2771 2771 2772 2772 2773 2773 2774 2774 2775 2776 2776 2776 2777 2778 2779 2779 2779 2779 2780 2781 2782 2783 2784 2786 2787 2788 2788 2788 2789 2791 2792 2794 2795 2797 2798 2799 2800 2801 2802 2803 2804 2805 2805 2806 2807 2807 2807 2807 2808 2809 2809 2809
2910 2903 2897 2891 2883 2876 2870 2864 2858 2853 2846 2839 2833 2827 2821 2817 2812 2807 2802 2797 2793 2790 2786 2783 2780 2777 2774 2771 2769 2767 2766 2766 2766 2766 2766 2767 2768 2768 2769 2770 2771 2771 2772 2772 2773 2774 2775 2775 2775 2776 2776 2776 2777 2778 2779 2781 2782 2783 2784 2784 2785 2786 2787 2788 2789 2791 2793 2794 2795 2796 2797 2798 2798 2799 2800 2800 2801 2802 2802 2803 2803 2804 2804 2805 2805
2904 2898 2891 2884 2877 2870 2864 2858 2853 2847 2841 2834 2828 2822 2815 2810 2805 2800 2795 2791 2787 2783 2780 2776 2774 2771 2768 2766 2763 2762 2761 2760 2761 2761 2762 2763 2763 2764 2765 2766 2767 2768 2768 2769 2770 2771 2772 2772 2772 2772 2773 2773 2774 2775 2776 2777 2778 2780 2780 2781 2782 2783 2784 2784 2785 2787 2788 2790 2791 2791 2792 2793 2794 2794 2795 2796 2797 2797 2798 2798 2798 2799 2800 2800 2801
2898 2891 2885 2878 2872 2866 2859 2852 2847 2842 2835 2829 2823 2817 2810 2805 2800 2795 2790 2785 2781 2777 2773 2771 2768 2765 2763 2761 2758 2757 2756 2756 2756 2757 2758 2758 2759 2760 2761 2762 2763 2764 2765 2765 2766 2768 2768 2769 2769 2769 2769 2770 2771 2771 2772 2773 2775 2776 2777 2778 2779 2779 2780 2781 2782 2783 2784 2785 2786 2787 2788 2788 2789 2789 2790 2791 2791 2792 2793 2793 2793 2794 2795 2796 2796
2893 2886 2880 2873 2867 2860 2853 2846 2840 2835 2830 2824 2818 2812 2806 2800 2794 2789 2784 2779 2775 2771 2767 2765 2763 2760 2758 2756 2753 2751 2751 2751 2752 2753 2754 2754 2755 2756 2758 2759 2760 2761 2761 2762 2763 2765 2765 2766 2766 2766 2766 2767 2767 2768 2769 2770 2771 2772 2774 2774 2775 2776 2777 2777 2778 2778 2779 2781 2781 2782 2783 2783 2783 2784 2784 2785 2786 2787 2787 2788 2788 2789 2790 2791 2791
2889 2882 2875 2868 2862 2855 2849 2842 2836 2830 2825 2819 2813 2807 2801 2795 2789 2783 2778 2773 2769 2765 2762 2760 2757 2755 2753 2751 2748 2747 2746 2747 2748 2749 2750 2751 2751 2753 2754 2756 2757 2757 2758 2759 2760 2762 2762 2762 2763 2763 2763 2764 2764 2765 2766 2767 2768 2769 2770 2771 2771 2772 2773 2773 2774 2774 2775 2776 2776 2777 2777 2778 2779 2779 2780 2780 2781 2782 2782 2783 2783 2784 2785 2786 2786
2884 2877 2870 2864 2858 2851 2844 2838 2832 2826 2820 2814 2809 2803 2796 2790 2784 2778 2772 2767 2763 2760 2757 2755 2752 2750 2748 2746 2744 2742 2742 2743 2744 2746 2746 2747 2748 2749 2751 2752 2753 2754 2755 2756 2757 2758 2759 2759 2760 2760 2761 2761 2761 2762 2763 2764 2765 2766 2766 2767 2768 2769 2769 2770 2770 2770 2770 2771 2772 2772 2773 2774 2774 2775 2775 2776 2776 2777 2778 2778 2779 2779 2780 2781 2782
2880 2873 2867 2861 2854 2848 2841 2834 2828 2822 2816 2810 2804 2798 2792 2785 2779 2773 2767 2762 2757 2754 2752 2750 2748 2745 2743 2742 2740 2739 2738 2739 2741 2742 2743 2744 2745 2746 2748 2750 2751 2752 2752 2753 2754 2755 2756 2757 2757 2757 2758 2758 2759 2759 2760 2761 2761 2762 2763 2764 2765 2765 2766 2766 2766 2766 2767 2767 2768 2768 2769 2769 2770 2770 2771 2771 2772 2772 2773 2773 2774 2775 2775 2776 2777
2875 2869 2863 2857 2851 2845 2838 2831 2824 2818 2812 2806 2800 2794 2787 2781 2774 2768 2762 2758 2753 2749 2746 2745 2743 2741 2739 2737 2736 2735 2735 2736 2737 2739 2740 2741 2742 2744 2745 2747 2748 2749 2750 2751 2751 2752 2753 2754 2755 2755 2755 2755 2756 2756 2757 2758 2758 2759 2760 2761 2762 2762 2762 2763 2763 2763 2763 2763 2764 2764 2765 2765 2766 2766 2767 2767 2768 2768 2769 2769 2770 2771 2771 2772 2773